User: anonymous   Login
Location: Unspecified
(0.0000°N, 0.0000°E)
Time: 02:07:08
(UTC+00:00)
Language:

OBJECT E - Orbit

View from above orbital plane
View from above orbital plane
View from above satellite
View from above satellite

Ground track
Ground track

The orbit is defined by the following mean orbital elements,

1 63295U          26145.59409609 +.00000000 +00000-0 +44167-3 0 00003
2 63295  97.6475 285.1121 0013318 207.5677 152.4850 15.16286265    02
Epoch (UTC): 25 May 2026 14:15:29
Eccentricity: 0.0013318
inclination: 97.6475°
perigee height: 508 km
apogee height: 526 km
right ascension of ascending node: 285.1121°
argument of perigee: 207.5677°
revolutions per day: 15.16286265
mean anomaly at epoch: 152.4850°

The dashed part of the orbit path shows where the satellite is in the earth's shadow,  

DLR